Volver al catálogo

NIMBUS 2 DEB

ActivoLEO
NORAD 40642·DEBRIS·🇺🇸 United States

Lanzado May 15, 1966 desde Vandenberg Space Force Base

Loading…

Próximos Pases (próximas 24 horas)

TLE

EnvejeciendoSource: Space-Track

Época: Sep 12, 2026, 17:13 UTC

1 40642U 66040BF  26255.71746893  .00003375  00000-0  44693-2 0  9993
2 40642 100.3137 174.4821 0035235 198.9748 161.0080 13.61364324557336

Sigue NIMBUS 2 DEB en tiempo real con AllMySat

Download on the App Store